Wind_Speed
9 6 7 11 7 7 8 8 7 7 5 3 5 4 5 11 9 13 5 6 6 6 4 4 3 2 8 8 7 7 8 8 7 10 10 8 10 12 13 12 12 11 11 12
7 9 10 10 9 10 8 8 7 11 8 5 6 6 5 8 11 9 9 6 9 10 7 6 5 4 3 8 7 7 9 9 6 6 10 10 11 11 10 11 10 10 10 13
10 12 12 12 11 10 7 11 11 9 8 6 5 4 4 7 7 10 10 12 12 12 10 9 7 7 3 6 8 11 11 6 5 5 7 9 11 13 13 12 12 12 13 17
13 11 12 14 13 10 11 13 12 15 14 8 8 8 8 7 5 5 8 8 10 12 10 7 14 10 9 8 9 8 8 9 5 5 6 8 11 13 12 10 11 12 16 19
14 10 11 13 15 13 12 17 19 18 16 12 10 11 15 10 5 7 9 10 11 13 11 8 16 15 12 14 11 10 9 7 5 4 5 8 12 13 12 11 11 11 18 20
16 11 8 9 18 15 22 20 17 16 6 5 10 8 12 11 8 8 7 13 15 17 16 14 15 19 15 16 16 15 13 10 7 6 4 6 10 13 14 14 13 12 18 22
16 13 9 12 15 17 23 24 17 12 5 2 3 6 12 9 7 10 9 9 15 16 16 17 16 15 21 22 18 15 15 13 12 10 9 8 10 12 16 18 16 14 16 23
15 13 13 9 11 18 22 21 19 5 7 7 2 2 8 7 6 10 9 8 12 18 17 15 13 13 19 21 19 17 17 16 13 11 11 10 10 11 14 19 18 17 18 21
13 13 16 14 15 17 18 20 13 12 12 9 1 5 2 9 6 9 11 10 8 16 20 17 15 16 20 17 19 19 18 18 15 14 12 13 11 10 13 17 19 20 20 21
18 21 20 18 20 19 20 21 19 15 15 13 2 2 7 4 4 8 14 14 15 13 17 17 15 14 18 18 18 16 19 19 16 15 14 15 14 12 10 18 20 21 22 22
27 23 20 19 16 14 16 24 22 20 20 13 10 3 7 7 9 7 12 12 8 8 12 12 11 15 15 13 15 20 26 20 17 16 17 16 17 17 13 17 21 24 24 24
29 26 27 24 21 20 18 15 11 12 16 17 16 1 5 1 4 3 10 3 1 5 7 6 7 10 10 10 5 17 15 17 18 18 17 19 17 18 18 20 21 23 26 26
27 27 27 29 28 26 23 23 22 17 13 16 19 10 7 1 4 6 6 2 6 5 3 3 6 7 6 6 8 17 19 14 16 19 23 18 21 21 24 23 23 24 22 23
30 29 27 30 28 21 25 27 23 20 20 14 18 16 12 6 3 3 2 3 6 5 3 5 2 1 3 7 9 10 13 11 12 9 11 17 28 28 27 26 25 25 25 23
38 33 26 22 19 25 27 26 22 24 23 22 18 20 17 13 6 4 3 9 2 5 2 2 2 2 2 1 2 5 7 8 8 6 12 17 13 23 25 26 28 28 29 28
40 37 34 29 26 26 30 25 23 25 25 27 26 21 19 18 10 7 6 3 7 8 2 1 3 4 5 6 5 5 6 7 7 7 9 9 11 15 22 30 31 36 35 33
45 41 41 39 28 29 34 33 28 28 26 22 25 18 19 19 13 7 12 16 14 13 10 8 7 7 7 6 7 8 9 10 11 11 11 11 10 12 16 17 20 28 33 36
48 43 40 41 34 35 34 32 29 29 33 30 23 24 24 23 14 10 11 14 15 20 18 11 10 9 8 6 7 9 11 13 15 15 14 14 14 14 16 18 19 21 28 34
57 50 52 42 37 38 35 35 34 29 26 25 27 27 29 20 15 9 14 15 16 20 20 16 15 13 12 8 8 9 10 12 15 17 18 18 17 17 17 16 17 16 15 26
44 49 53 55 52 46 30 30 36 31 29 19 17 18 18 17 18 16 17 21 19 16 22 22 17 15 12 10 11 11 12 12 12 14 17 20 20 18 18 18 16 17 19 22
43 39 47 52 57 47 37 31 35 37 29 22 21 18 14 18 16 17 17 15 17 18 20 20 17 15 12 13 13 14 16 17 17 16 17 20 21 21 19 19 17 18 18 21
39 39 39 42 44 44 43 45 37 33 30 21 22 22 24 20 18 18 14 14 14 16 17 16 15 13 14 13 15 17 19 18 17 17 18 19 22 22 22 22 21 20 20 19
40 38 38 38 38 32 39 37 38 39 39 25 23 16 15 17 21 19 17 21 17 14 13 14 15 16 16 15 16 19 20 19 17 18 16 18 21 22 23 24 24 23 23 23
41 37 36 32 31 33 37 46 39 46 44 23 20 23 21 16 19 22 26 23 22 18 15 15 16 15 15 17 18 18 18 19 19 20 19 18 21 22 24 24 25 25 25 26
44 45 42 36 34 34 32 31 42 43 36 28 26 26 26 22 21 21 23 21 17 15 14 15 15 16 15 15 14 15 16 18 19 20 20 20 21 23 24 25 26 25 27 27
49 44 48 40 35 31 33 30 30 33 31 28 27 30 24 26 28 30 26 28 24 15 13 15 16 13 13 15 17 17 18 19 20 20 20 20 21 23 23 24 24 24 23 23
Wind_Direction
327 287 253 252 244 227 233 243 205 145 99 123 145 61 79 88 142 143 111 203 209 207 176 172 178 199 143 139 138 153 173 163 164 158 150 151 153 156 161 163 157 145 155 165
305 255 252 244 237 240 212 211 204 159 137 122 107 139 179 138 126 139 143 154 208 183 186 190 166 242 195 158 148 160 169 150 156 169 181 176 176 170 169 162 160 158 169 176
279 266 267 255 236 237 209 215 202 185 195 213 185 171 177 207 189 160 171 187 191 199 202 211 190 196 217 207 193 165 171 180 179 189 197 207 194 186 182 183 170 171 182 185
286 288 255 250 233 233 216 214 206 211 232 236 227 222 231 230 228 202 198 214 197 175 213 233 203 195 177 198 204 186 171 161 192 204 215 215 195 194 195 197 180 174 178 192
272 278 257 257 229 228 212 233 234 246 249 242 242 234 230 229 239 251 205 201 214 205 209 217 188 186 205 194 191 192 184 171 189 214 249 237 219 205 193 202 198 188 184 190
274 262 253 232 223 227 230 240 237 247 240 229 258 245 227 224 249 268 235 196 200 205 213 216 211 223 215 205 195 193 195 195 212 230 221 244 238 225 210 199 203 194 192 191
263 259 214 226 220 232 234 236 243 247 242 254 245 186 206 230 252 273 263 234 217 215 208 215 218 210 210 208 206 203 199 197 212 216 227 230 231 217 213 201 195 197 197 201
261 241 207 200 228 246 232 233 241 245 228 272 346 23 217 233 246 275 299 269 224 216 216 204 217 211 198 203 207 209 212 211 209 220 218 216 223 228 220 200 193 197 196 199
229 197 199 184 204 225 235 220 229 245 237 263 43 1 275 192 241 271 312 306 262 218 223 219 222 204 206 214 210 215 218 216 212 221 218 215 216 228 221 205 197 195 201 201
194 182 188 193 209 217 226 216 217 238 230 247 216 344 97 177 282 302 313 305 295 244 206 212 215 198 205 209 217 225 221 220 215 221 228 222 233 229 214 211 208 206 202 203
190 192 186 212 222 228 235 215 219 221 225 243 234 187 96 200 276 281 293 307 298 200 194 207 221 212 231 218 241 233 210 214 219 222 233 228 230 242 239 227 219 219 219 211
192 208 212 216 214 225 210 225 223 232 242 251 255 250 201 337 76 289 297 315 285 181 188 206 225 193 196 207 211 196 203 219 223 225 229 239 236 245 239 245 238 230 231 223
201 207 196 202 206 211 209 213 211 230 247 249 249 226 233 222 253 303 301 101 75 89 110 193 210 182 187 208 242 224 209 221 223 244 233 248 255 240 242 237 241 239 231 233
219 221 222 212 217 212 218 214 212 223 237 238 263 255 239 220 278 326 5 122 89 76 81 92 92 128 207 236 220 210 222 215 246 250 249 262 275 241 238 238 238 242 244 231
224 227 230 231 223 225 219 224 231 234 233 237 243 256 255 249 208 335 262 206 70 43 58 128 130 141 143 220 225 239 246 252 259 262 254 253 284 232 242 239 238 240 241 238
240 241 225 218 219 221 238 226 235 243 245 246 248 254 268 273 258 261 251 273 235 281 309 166 187 220 234 233 237 238 254 260 267 266 262 264 257 242 254 242 235 241 237 238
231 235 240 218 221 231 232 233 234 249 253 262 262 261 285 285 287 266 252 259 258 248 248 215 209 220 234 255 260 259 254 258 256 258 262 268 260 259 259 247 256 249 227 233
228 228 237 230 215 228 236 239 242 244 248 249 260 261 284 276 297 272 281 260 256 237 236 233 230 237 242 240 247 261 270 268 262 258 256 253 254 254 257 254 257 242 228 227
227 231 240 235 216 216 225 238 245 246 250 255 250 256 268 264 274 281 284 265 250 242 241 251 242 243 249 258 262 264 269 268 262 258 254 250 242 243 250 252 256 257 248 235
243 233 238 245 252 244 214 229 237 242 242 244 239 246 250 261 255 263 279 273 254 249 239 252 252 253 254 262 266 274 282 285 285 268 264 258 251 249 248 258 262 258 252 256
242 245 237 240 248 247 209 219 231 239 242 241 238 217 234 267 244 244 269 266 252 247 248 250 253 257 257 265 276 290 296 302 299 285 264 261 258 253 253 254 256 260 262 258
234 238 243 245 240 236 210 221 223 232 233 221 232 230 235 241 224 231 248 254 251 248 251 252 253 257 258 264 276 285 290 293 292 285 264 255 258 259 260 260 258 258 262 265
227 232 238 243 248 247 222 213 222 231 231 230 235 229 229 227 218 235 248 255 269 272 264 257 263 257 264 270 279 285 290 296 299 289 274 259 256 255 256 262 264 264 263 265
226 226 233 240 243 237 228 233 228 228 231 213 227 228 229 223 230 250 257 253 261 271 269 263 259 265 271 276 275 284 295 299 300 291 278 265 257 253 253 253 256 259 263 266
228 227 231 231 231 236 236 228 228 226 226 241 243 241 232 233 234 248 253 247 253 266 262 260 267 268 266 274 285 288 294 297 297 289 281 270 261 256 256 256 257 261 266 266
218 228 227 220 227 229 232 231 228 229 232 235 239 244 243 232 240 248 252 250 249 259 269 266 264 269 292 302 304 308 309 310 304 298 289 281 272 266 258 255 256 261 262 265
Height
5869 5869 5869 5869 5870 5872 5873 5876 5874 5874 5875 5875 5873 5873 5873 5872 5872 5871 5874 5875 5877 5879 5879 5878 5878 5879 5880 5881 5883 5884 5886 5886 5887 5888 5889 5891 5892 5894 5895 5897 5899 5902 5906 5909
5868 5867 5866 5867 5868 5869 5872 5873 5873 5873 5873 5874 5872 5872 5874 5874 5873 5875 5874 5874 5875 5877 5878 5878 5877 5878 5880 5881 5883 5885 5886 5887 5888 5890 5890 5892 5894 5895 5896 5898 5900 5902 5905 5909
5866 5864 5864 5864 5866 5868 5870 5872 5872 5872 5871 5872 5872 5873 5873 5873 5873 5873 5874 5873 5874 5875 5875 5876 5875 5877 5878 5880 5881 5883 5885 5887 5888 5890 5891 5893 5894 5896 5897 5898 5900 5903 5905 5908
5863 5862 5862 5863 5865 5867 5870 5870 5871 5870 5871 5871 5872 5872 5871 5871 5872 5873 5874 5872 5871 5870 5873 5874 5873 5876 5878 5879 5880 5882 5883 5886 5889 5890 5891 5892 5893 5894 5897 5898 5900 5902 5904 5906
5860 5860 5860 5861 5863 5864 5866 5867 5867 5868 5869 5869 5868 5870 5868 5868 5869 5869 5870 5871 5870 5870 5871 5872 5873 5873 5875 5878 5880 5881 5881 5883 5885 5888 5889 5891 5894 5894 5895 5897 5898 5900 5902 5904
5856 5857 5857 5860 5859 5862 5862 5862 5864 5864 5866 5867 5866 5866 5868 5868 5868 5867 5867 5867 5868 5867 5868 5870 5872 5873 5873 5876 5878 5879 5881 5882 5883 5885 5887 5889 5892 5894 5895 5897 5898 5900 5902 5904
5852 5853 5854 5856 5858 5859 5861 5861 5862 5863 5864 5865 5864 5865 5865 5865 5866 5864 5864 5864 5866 5865 5866 5867 5868 5869 5869 5873 5875 5878 5880 5881 5883 5885 5887 5888 5891 5893 5894 5896 5898 5899 5901 5905
5848 5849 5850 5853 5856 5857 5858 5859 5860 5862 5863 5863 5864 5863 5864 5864 5864 5863 5861 5861 5861 5862 5863 5865 5866 5865 5867 5871 5873 5876 5878 5880 5882 5884 5887 5888 5889 5891 5892 5894 5896 5898 5899 5903
5844 5847 5848 5851 5854 5855 5855 5855 5860 5860 5861 5862 5863 5863 5863 5863 5863 5862 5860 5859 5859 5859 5860 5862 5862 5863 5866 5868 5871 5873 5876 5878 5880 5883 5886 5887 5887 5889 5892 5894 5895 5896 5898 5900
5841 5844 5847 5850 5850 5851 5851 5855 5857 5859 5859 5860 5862 5862 5861 5863 5862 5860 5859 5858 5857 5856 5857 5860 5860 5861 5863 5865 5867 5871 5874 5876 5880 5881 5884 5886 5887 5888 5890 5893 5894 5895 5896 5898
5837 5841 5845 5847 5849 5850 5851 5850 5853 5856 5857 5858 5860 5862 5861 5862 5861 5859 5858 5857 5854 5851 5855 5857 5859 5859 5861 5863 5864 5865 5870 5874 5877 5879 5882 5884 5886 5888 5890 5892 5893 5893 5895 5897
5834 5836 5838 5842 5844 5846 5847 5850 5852 5853 5856 5856 5857 5861 5860 5861 5861 5860 5858 5857 5855 5854 5855 5858 5859 5858 5859 5861 5862 5865 5869 5872 5875 5877 5879 5881 5884 5886 5888 5890 5891 5892 5892 5894
5831 5831 5833 5835 5839 5841 5843 5845 5847 5850 5851 5853 5855 5859 5859 5860 5860 5859 5858 5858 5856 5856 5856 5856 5857 5858 5859 5861 5862 5864 5867 5870 5873 5874 5875 5878 5880 5882 5883 5884 5886 5889 5889 5892
5824 5826 5829 5831 5835 5838 5840 5842 5844 5846 5847 5850 5852 5855 5857 5859 5860 5859 5859 5859 5858 5857 5857 5857 5857 5857 5858 5859 5861 5863 5865 5868 5870 5871 5872 5873 5871 5873 5878 5880 5881 5884 5885 5887
5814 5819 5824 5828 5832 5834 5836 5838 5840 5842 5844 5846 5849 5851 5853 5855 5857 5858 5858 5858 5858 5858 5858 5858 5858 5858 5859 5860 5860 5861 5863 5864 5865 5865 5866 5867 5866 5867 5873 5875 5876 5878 5879 5880
5805 5811 5816 5821 5825 5828 5829 5833 5836 5837 5840 5842 5844 5847 5850 5851 5853 5855 5856 5856 5857 5857 5857 5858 5858 5858 5859 5860 5860 5860 5860 5861 5861 5861 5862 5863 5863 5865 5867 5866 5869 5871 5871 5873
5797 5802 5805 5812 5817 5822 5822 5826 5830 5834 5836 5838 5839 5845 5846 5848 5850 5852 5853 5853 5854 5854 5855 5856 5856 5857 5858 5857 5857 5857 5857 5857 5858 5857 5857 5857 5858 5858 5858 5860 5861 5860 5861 5866
5786 5792 5793 5799 5805 5810 5818 5821 5825 5828 5830 5833 5836 5838 5841 5843 5847 5848 5848 5848 5848 5848 5850 5852 5853 5854 5855 5855 5855 5854 5853 5853 5854 5853 5853 5854 5853 5853 5854 5854 5854 5853 5855 5859
5776 5780 5785 5788 5793 5798 5809 5815 5818 5821 5826 5827 5832 5834 5836 5839 5842 5844 5843 5842 5843 5842 5845 5847 5849 5851 5852 5851 5851 5852 5851 5851 5850 5849 5849 5849 5849 5848 5848 5848 5849 5848 5849 5852
5762 5769 5777 5779 5785 5791 5801 5808 5811 5814 5818 5823 5826 5830 5832 5834 5836 5838 5838 5837 5838 5839 5840 5841 5844 5846 5846 5846 5846 5847 5846 5845 5845 5844 5843 5843 5842 5841 5842 5842 5843 5843 5844 5845
5752 5757 5762 5770 5774 5782 5792 5798 5802 5806 5817 5819 5820 5825 5827 5830 5831 5832 5832 5831 5832 5834 5835 5837 5839 5841 5841 5841 5840 5840 5839 5838 5836 5836 5836 5836 5835 5835 5835 5836 5837 5838 5839 5839
5743 5749 5753 5758 5764 5768 5778 5786 5793 5799 5805 5810 5815 5818 5823 5825 5826 5828 5828 5827 5828 5829 5831 5832 5833 5834 5835 5836 5836 5836 5835 5834 5832 5830 5829 5829 5829 5828 5828 5829 5830 5831 5832 5832
5734 5739 5745 5751 5757 5763 5772 5776 5783 5791 5797 5801 5807 5812 5815 5818 5821 5822 5822 5823 5823 5824 5825 5826 5827 5829 5831 5831 5831 5830 5828 5827 5825 5824 5824 5823 5823 5822 5823 5822 5823 5823 5824 5825
5723 5730 5736 5743 5748 5752 5761 5764 5773 5781 5788 5794 5799 5804 5809 5813 5816 5817 5816 5817 5818 5818 5820 5821 5823 5824 5825 5825 5825 5824 5822 5820 5818 5817 5816 5816 5817 5816 5816 5817 5817 5818 5818 5818
5713 5721 5727 5735 5740 5745 5752 5757 5765 5774 5780 5785 5792 5798 5803 5807 5810 5810 5810 5810 5812 5813 5815 5816 5817 5819 5819 5819 5818 5818 5816 5814 5812 5810 5809 5809 5809 5809 5809 5810 5810 5810 5811 5811
5703 5710 5717 5725 5732 5739 5745 5752 5757 5764 5772 5779 5785 5790 5796 5800 5802 5804 5804 5805 5807 5809 5810 5811 5811 5811 5811 5812 5811 5811 5810 5809 5807 5804 5802 5801 5800 5800 5801 5802 5801 5801 5801 5802